RH
25 47 54 29 31 26 42 37 40 40 40 33 26 32 37 40 40 39 33 32 36 39 41 40 40 46 52 56 56 57 63 69 69 76 79 79 86 91
24 24 33 24 26 34 40 40 44 46 44 29 31 42 42 43 40 34 30 13 14 27 38 38 42 47 50 52 50 53 59 67 72 75 74 64 48 41
23 24 26 35 32 37 40 46 48 47 33 29 44 42 41 39 25 9 5 5 4 5 8 12 22 29 35 42 50 57 65 76 76 58 23 16 8 5
23 26 28 32 40 47 52 49 46 31 33 42 44 40 30 11 7 6 6 6 6 6 5 4 5 7 10 15 24 43 59 60 49 41 35 11 3 2
28 34 38 44 48 55 50 41 26 35 45 41 27 13 9 8 8 10 11 11 10 8 7 6 4 4 3 3 4 7 12 14 10 5 2 2 3 6
40 41 45 47 48 48 31 26 41 46 35 10 9 9 10 12 14 16 16 14 12 10 8 7 5 5 5 4 3 3 2 2 2 2 3 6 8 9
42 40 42 43 28 28 28 49 43 16 10 10 12 15 16 18 19 18 16 15 14 12 10 10 9 8 8 8 8 6 5 4 4 5 7 9 10 11
28 30 26 27 29 37 51 39 9 10 13 16 18 20 21 21 20 19 18 16 15 14 14 15 15 15 15 14 13 11 9 8 8 9 10 10 13 15
23 25 31 37 52 54 34 9 12 16 19 21 23 23 22 22 20 19 18 19 20 20 20 20 19 18 17 15 14 12 9 9 11 13 13 14 16 18
35 37 51 52 52 14 11 15 18 21 23 25 25 24 23 22 20 21 23 25 26 27 26 24 22 20 17 16 12 10 8 9 11 15 18 20 21 23
45 57 56 36 10 14 17 19 22 25 26 26 26 24 23 22 23 26 28 30 32 32 30 28 23 20 18 16 12 10 9 10 12 16 21 26 28 30
64 54 14 11 15 16 18 22 26 28 28 27 26 25 24 24 27 30 34 36 37 35 32 29 25 22 19 16 13 9 8 9 11 16 23 29 33 34
29 9 11 13 14 18 22 27 30 30 30 28 28 27 27 29 34 37 39 40 40 39 35 32 26 22 19 16 12 10 10 10 13 18 26 31 36 38
8 9 10 12 17 23 27 31 32 32 31 30 30 31 34 38 42 43 43 43 42 40 38 34 29 25 22 17 13 12 11 12 15 21 27 33 37 38
7 8 11 17 23 28 32 34 35 35 35 35 36 38 42 45 46 47 47 46 45 43 40 37 32 28 24 20 15 13 12 17 21 26 31 34 37 38
7 10 16 22 27 31 34 37 38 39 40 42 44 45 45 46 50 53 53 50 49 46 43 41 35 31 25 22 18 15 15 17 27 30 34 39 41 45
9 15 21 25 29 34 37 39 41 44 45 45 45 43 43 42 46 56 58 56 53 51 47 44 40 34 29 26 21 20 19 22 28 36 41 46 49 50
14 19 22 26 30 34 37 40 43 44 45 46 45 44 43 42 42 48 61 64 60 55 52 48 44 40 36 29 30 29 25 25 30 35 43 48 52 55
17 20 22 25 28 32 35 38 40 43 44 44 43 43 42 41 41 48 57 71 70 63 58 53 49 44 43 36 31 29 29 30 31 41 48 55 57 63
17 18 20 22 25 28 30 32 34 36 37 37 42 58 42 40 63 88 81 83 80 72 66 60 56 50 47 42 37 37 35 35 37 38 41 47 55 69
15 16 18 19 21 23 25 27 28 28 29 30 51 60 44 50 84 89 89 87 83 81 76 70 64 56 47 44 37 40 48 53 55 55 56 55 54 53
14 15 16 18 19 20 22 22 23 23 24 24 28 29 72 88 91 91 91 86 85 84 81 74 66 54 47 40 40 41 49 58 60 54 55 63 63 56
16 17 18 19 20 21 22 22 22 24 24 23 25 37 82 88 93 93 91 86 89 85 82 76 65 52 43 42 39 36 37 46 50 49 54 68 71 73
Wind_Speed
36 34 34 34 33 29 27 26 28 31 31 27 26 24 25 24 21 22 20 19 20 20 19 18 19 22 24 26 27 29 31 29 28 29 27 22 20 21
33 33 30 30 29 27 28 28 30 31 31 29 24 24 22 20 18 16 14 14 15 15 16 16 19 20 22 24 25 26 27 28 26 24 23 25 25 24
31 31 31 29 29 29 29 30 31 30 29 26 24 21 18 14 11 11 14 14 14 15 15 16 18 19 20 22 23 24 24 25 25 25 26 28 29 30
32 32 33 32 31 31 31 30 28 27 25 23 20 16 11 11 12 13 15 15 16 16 16 17 19 19 20 22 24 24 25 26 27 29 32 33 31 31
34 33 32 33 32 31 29 26 24 23 21 17 12 12 11 12 13 15 16 17 17 17 17 19 19 19 21 22 24 26 28 31 32 32 32 28 21 18
33 33 31 30 29 27 24 22 21 20 14 11 12 12 12 14 15 17 17 17 17 17 18 18 19 19 19 20 21 23 25 26 26 24 21 18 19 20
31 29 27 26 25 23 21 20 16 13 12 12 13 13 14 15 16 17 17 16 16 18 18 17 18 17 17 18 20 22 24 24 23 23 22 22 22 22
27 25 24 23 22 20 18 16 13 13 12 14 14 14 14 15 16 16 16 16 15 19 17 16 18 18 18 19 21 23 24 25 25 25 26 26 26 26
23 22 21 21 18 17 15 14 14 13 14 15 14 14 14 15 15 15 14 15 17 17 18 18 18 18 20 21 23 25 26 27 27 27 28 29 29 29
22 20 20 18 16 15 14 13 13 14 15 14 14 14 15 15 14 14 15 17 18 19 19 19 20 20 21 23 24 27 28 29 29 29 30 29 29 28
20 18 17 16 15 14 14 14 14 15 14 14 14 14 15 14 14 16 17 19 20 20 21 21 21 22 23 25 26 27 28 29 29 29 28 27 27 27
18 17 17 16 14 14 15 15 14 14 14 14 14 15 15 15 16 18 20 21 21 20 21 21 22 23 25 25 27 30 30 30 28 27 25 24 24 24
19 18 17 16 14 16 16 15 14 14 14 14 15 15 16 17 18 20 21 22 22 22 21 22 22 24 25 26 27 29 30 29 27 24 23 21 21 22
19 18 17 16 16 16 15 15 15 14 14 15 15 16 17 19 20 22 22 23 23 23 22 22 23 25 26 26 26 28 30 29 27 24 22 20 19 20
19 18 18 17 16 16 15 15 15 15 15 15 16 17 19 20 21 23 23 23 23 24 23 24 25 26 26 27 26 26 30 27 26 27 25 24 24 24
19 19 19 17 16 15 15 15 15 15 16 16 17 18 19 20 22 23 23 23 24 25 25 25 26 27 27 27 26 26 29 28 26 28 28 26 26 28
20 20 19 17 16 16 16 16 16 16 16 17 18 19 20 22 23 24 24 24 24 25 27 27 27 28 27 27 25 27 28 29 31 29 30 29 27 28
21 20 19 18 17 17 17 17 17 17 17 18 19 21 22 23 24 25 26 25 25 26 27 28 29 30 29 27 27 26 28 31 32 32 33 32 27 27
21 20 20 19 19 19 20 20 19 19 20 21 21 23 24 25 26 27 27 27 27 26 27 29 30 31 31 30 28 26 26 31 35 34 34 34 31 27
22 22 22 22 21 22 22 22 22 22 23 23 24 26 27 28 31 32 29 29 28 27 27 29 30 31 32 32 30 24 30 28 31 33 34 35 33 29
24 24 24 25 25 24 25 25 25 26 26 27 28 28 30 33 36 33 30 29 28 27 27 28 30 31 32 33 31 27 27 30 29 29 32 35 34 31
27 27 27 27 27 27 27 27 28 29 29 29 31 30 35 35 34 31 29 28 28 27 27 28 30 31 32 33 31 30 27 28 29 28 29 33 34 32
29 29 30 30 29 29 29 29 30 30 31 31 32 34 36 36 33 29 27 27 27 27 28 28 29 31 32 32 32 31 28 26 27 27 25 30 31 31
Wind_Direction
273 273 274 279 280 278 279 282 285 290 291 296 294 292 293 291 290 291 290 291 290 289 287 286 283 279 276 274 282 282 284 289 296 294 299 304 298 288
270 270 272 274 276 278 279 283 284 286 288 293 294 292 288 285 287 287 290 295 297 293 289 288 285 284 283 285 287 285 283 286 295 294 295 296 295 293
270 272 273 275 275 277 280 281 283 284 284 287 289 285 280 279 278 285 289 291 293 291 292 292 288 289 291 292 292 292 292 287 286 286 289 291 292 289
274 274 272 276 277 277 279 280 280 280 281 284 281 275 262 270 278 284 286 290 292 292 293 292 289 290 291 291 291 290 290 289 286 287 289 292 291 287
271 272 272 273 275 275 275 276 275 276 277 272 260 261 270 278 284 288 291 293 293 295 296 293 294 296 295 292 290 289 287 286 288 289 292 292 286 279
269 270 272 272 271 270 270 272 273 270 253 254 262 270 276 283 288 290 292 294 297 298 294 293 294 294 293 292 295 295 293 293 295 295 291 285 281 279
268 268 268 267 266 266 266 266 257 246 253 261 267 275 281 286 288 289 292 294 298 295 294 296 295 296 298 299 298 298 297 296 294 292 291 288 283 279
266 264 264 262 262 260 257 241 239 251 260 267 273 280 285 287 288 290 293 298 301 299 301 302 300 301 303 306 304 301 298 295 292 290 288 286 285 283
261 259 258 258 255 248 230 234 245 257 266 271 279 284 285 286 286 290 297 303 301 300 300 299 300 304 306 307 306 303 299 294 290 287 284 283 284 285
252 252 250 245 233 222 229 239 251 260 265 273 280 283 284 284 286 293 300 300 301 302 302 302 303 305 307 308 307 304 300 295 289 285 283 283 283 281
246 242 235 216 214 225 237 247 256 263 271 276 279 282 281 283 288 295 298 299 301 303 303 304 306 307 308 310 310 305 301 296 291 287 285 282 280 278
233 218 209 214 220 233 244 252 259 267 273 277 280 278 279 282 289 293 295 298 299 300 300 305 306 306 308 312 312 309 306 301 297 295 291 286 282 278
213 211 213 220 228 241 250 258 265 270 274 278 278 279 281 286 290 293 296 297 297 299 300 303 303 305 309 312 312 309 305 302 301 298 293 287 282 281
213 216 221 228 236 246 254 262 268 272 275 277 278 280 284 287 292 294 295 296 297 299 301 303 304 305 307 308 310 307 304 303 303 300 296 290 286 283
217 220 227 233 240 249 258 264 268 272 276 279 282 285 287 291 295 295 296 297 297 298 301 303 303 305 305 307 309 304 301 299 297 294 295 294 291 288
220 224 232 238 245 253 259 264 270 276 279 282 285 288 294 298 298 298 298 298 298 300 301 302 302 302 303 305 307 302 299 297 289 287 287 287 287 288
225 230 236 242 249 255 261 267 271 275 280 286 289 294 300 302 302 303 302 300 299 299 300 301 301 302 303 304 305 302 298 293 290 287 286 286 286 285
229 235 241 247 251 257 262 266 271 276 281 286 292 297 300 302 304 305 305 304 301 299 299 300 301 303 304 306 307 305 299 294 290 289 289 288 285 283
235 241 245 250 254 259 263 266 271 276 281 286 291 296 299 301 302 303 305 305 301 299 300 299 302 303 306 308 309 306 297 292 292 292 292 290 289 284
241 245 248 252 255 259 264 268 272 276 280 284 290 295 296 297 302 304 301 303 300 299 299 300 301 303 306 308 309 307 301 296 291 292 292 292 293 288
246 249 252 255 258 262 266 270 274 277 279 281 287 295 296 296 303 303 299 298 298 298 299 300 302 304 306 307 309 310 304 300 299 298 296 296 296 293
250 254 257 259 262 265 269 272 276 278 279 280 283 286 297 300 302 299 295 297 297 297 298 300 302 305 306 307 310 310 307 302 302 301 300 299 299 300
257 258 259 261 264 268 270 273 275 279 281 280 282 285 293 299 298 293 292 294 294 296 299 301 303 304 306 307 308 309 307 305 301 301 302 298 299 301